[[{"header":{"parameterUnit":"m.s-1","parameterCategory":1,"la1":30.2991,"la2":30.254,"lo1":-89.0895,"lo2":-89.0444,"dy":0.0017,"dx":0.0017,"nx":28,"ny":28,"refTime":"2025-07-23T03:00:00:Z","depth":0,"parameterNumber":2,"parameterNumberName":"U-component_of_WINDS"},"data":[0,0,0,0,0,0,0,0,0,0,0,0,0,0,0,0,0,0,0,0,0,0,0,0,0,0,0,0,0,0,0,0,0,0,0,0,0,0,0,0,0,0,0,0,0,0,0,0,0,0,0,0,0,0,0,0,0,0,-3.1441,-3.1442,0,-3.1548,-3.155,-3.1551,-3.1581,-3.158,-3.1579,-3.1579,-3.1686,-3.169,-3.1693,0,0,0,0,0,0,0,0,0,0,0,0,0,-3.1259,-3.1263,-3.1441,-3.1442,-3.1444,-3.1548,-3.155,-3.1551,-3.1581,-3.158,-3.1579,-3.1579,-3.1685,-3.1689,-3.1693,0,0,0,0,0,0,0,0,0,0,0,0,0,-3.135,-3.1264,-3.1441,-3.1471,-3.1475,-3.1548,-3.155,-3.1551,-3.1581,-3.158,-3.1579,-3.1578,-3.1684,-3.1689,-3.1694,-3.1744,0,0,-3.171,-3.1712,0,0,0,0,0,0,0,0,-3.1344,-3.1356,-3.1465,-3.1469,-3.1473,-3.155,-3.1525,-3.1616,-3.1581,-3.1541,-3.1579,-3.1578,-3.1642,-3.165,-3.1672,-3.1749,-3.1753,-3.171,-3.1713,-3.1716,-3.1717,0,0,0,0,0,0,0,-3.1338,-3.1352,-3.1483,-3.1467,-3.1472,-3.1479,-3.149,-3.1542,-3.1595,-3.1544,-3.1546,-3.1559,-3.1644,-3.1667,-3.1675,-3.1755,-3.171,-3.1715,-3.1718,-3.172,-3.1877,-3.1878,0,0,0,0,0,0,-3.1327,-3.1346,-3.148,-3.1487,-3.1405,-3.1483,-3.1496,-3.1526,-3.1594,-3.1604,-3.156,-3.156,-3.1659,-3.1669,-3.1679,-3.1741,-3.1715,-3.172,-3.1723,-3.1876,-3.1878,-3.1879,0,0,0,0,0,0,-3.1323,-3.1339,-3.1476,-3.1417,-3.1435,-3.1487,-3.1521,-3.1529,-3.1553,-3.1606,-3.1615,-3.1574,-3.1659,-3.1672,-3.1728,-3.1745,-3.1723,-3.1727,-3.1875,-3.1877,-3.1878,-3.1866,0,0,0,0,0,0,-3.1318,-3.1337,-3.1357,-3.1417,-3.1438,-3.1523,-3.1522,-3.1532,-3.1562,-3.1563,-3.1622,-3.1631,-3.1659,-3.172,-3.1733,-3.1752,-3.1731,-3.1874,-3.1876,-3.1878,-3.1865,-3.1867,-3.1868,0,0,0,0,0,-3.1311,-3.1349,-3.1358,-3.1374,-3.1464,-3.1524,-3.1536,-3.1568,-3.1563,-3.1583,-3.1617,-3.1629,-3.1742,-3.1725,-3.174,-3.1761,-3.1873,-3.1875,-3.1877,-3.1864,-3.1866,-3.1868,0,0,0,0,0,0,-3.1288,-3.1357,-3.1368,-3.1426,-3.1469,-3.1529,-3.1555,-3.1569,-3.1613,-3.1613,-3.165,-3.1663,-3.1716,-3.1744,-3.1725,-3.1813,-3.1807,-3.1813,-3.1792,-3.1795,-3.1796,-3.1788,-3.1736,0,0,0,0,0,-3.129,-3.1333,-3.1391,-3.1437,-3.1458,-3.1503,-3.153,-3.1551,-3.1596,-3.1614,-3.1653,-3.1696,-3.1741,-3.177,-3.1814,-3.187,-3.1882,-3.1891,-3.1893,-3.1894,-3.1898,-3.1929,-3.1933,-3.1887,-3.1887,-3.1887,0,0,-3.1293,-3.1337,-3.1362,-3.1433,-3.1469,-3.1512,-3.1518,-3.1563,-3.1595,-3.1621,-3.1676,-3.1706,-3.1756,-3.1812,-3.1839,-3.1837,-3.1914,-3.1898,-3.1898,-3.1901,-3.1932,-3.1936,-3.194,-3.1889,-3.1888,-3.1888,0,0,-3.1322,-3.136,-3.1402,-3.1438,-3.1492,-3.1522,-3.1532,-3.159,-3.1611,-3.1667,-3.1687,-3.1725,-3.1802,-3.1837,-3.1865,-3.1908,-3.192,-3.1921,-3.193,-3.196,-3.1964,-3.1967,-3.1981,-3.1986,-3.1925,-3.1925,-3.1925,0,-3.132,-3.1386,-3.1422,-3.1466,-3.1497,-3.1523,-3.1566,-3.1599,-3.1664,-3.1684,-3.1682,-3.1779,-3.1815,-3.1879,-3.189,-3.1912,-3.1924,-3.1914,-3.196,-3.1964,-3.1968,-3.1982,-3.1987,-3.1925,-3.1925,-3.1925,-3.1925,0,-3.138,-3.1426,-3.1454,-3.1517,-3.1551,-3.1594,-3.1635,-3.1665,-3.1684,-3.1713,-3.177,-3.1814,-3.1868,-3.1885,-3.1903,-3.1951,-3.1949,-3.1953,-3.1948,-3.1971,-3.1985,-3.1991,-3.1925,-3.1925,-3.1925,-3.1925,0,0,-3.1396,-3.1479,-3.1488,-3.1517,-3.1579,-3.1615,-3.1659,-3.1713,-3.1737,-3.1782,-3.1819,-3.1884,-3.1889,-3.192,-3.1943,-3.1969,-3.1999,-3.1971,-3.1972,-3.1973,-3.2054,-3.2049,-3.2055,-3.2008,-3.201,-3.2011,-3.2049,0,-3.1431,-3.1512,-3.1545,-3.161,-3.1653,-3.1679,-3.1718,-3.1759,-3.1789,-3.1828,-3.1861,-3.1905,-3.1909,-3.1928,-3.1955,-3.199,-3.2016,-3.1988,-3.2042,-3.2044,-3.2027,-3.2062,-3.2057,-3.2092,-3.2055,-3.2056,-3.2057,0,-3.1483,-3.1529,-3.1598,-3.1655,-3.1674,-3.1708,-3.176,-3.1798,-3.1846,-3.1865,-3.1901,-3.1922,-3.1969,-3.1962,-3.2027,-3.2007,-3.2032,-3.2052,-3.2054,-3.2059,-3.205,-3.2067,-3.2103,-3.2108,-3.2066,-3.2065,-3.2064,0,-3.1486,-3.1565,-3.1616,-3.1641,-3.1709,-3.1732,-3.1761,-3.1808,-3.1838,-3.1883,-3.1903,-3.1952,-3.1979,-3.2017,-3.2051,-3.2043,-3.2112,-3.2108,-3.2128,-3.2127,-3.214,-3.2138,-3.218,-3.2158,-3.2158,-3.2158,-3.2158,0,-3.1521,-3.1562,-3.1619,-3.165,-3.1697,-3.1735,-3.178,-3.1811,-3.1853,-3.189,-3.1916,-3.1951,-3.1994,-3.2034,-3.2061,-3.211,-3.2122,-3.2138,-3.2145,-3.2135,-3.2133,-3.215,-3.2148,-3.216,-3.2159,-3.2159,-3.2159,0,-3.1531,-3.1571,-3.1629,-3.1689,-3.1705,-3.1736,-3.1788,-3.1819,-3.185,-3.1897,-3.191,-3.1958,-3.2007,-3.2045,-3.2108,-3.2126,-3.2177,-3.2185,-3.2161,-3.2164,-3.2181,-3.2178,-3.2234,-3.2243,-3.2216,-3.2217,-3.2217,0,-3.155,-3.1583,-3.1647,-3.1674,-3.1703,-3.1747,-3.1778,-3.1816,-3.1847,-3.1905,-3.1929,-3.1979,-3.2022,-3.2098,-3.2138,-3.2186,-3.2194,-3.2211,-3.2202,-3.2191,-3.2193,-3.219,-3.2193,-3.2211,-3.2211,-3.2211,-3.2211,0,-3.158,-3.1598,-3.1642,-3.1693,-3.1729,-3.177,-3.1813,-3.1833,-3.188,-3.1913,-3.1963,-3.1996,-3.2061,-3.211,-3.2163,-3.2192,-3.2209,-3.2214,-3.2221,-3.2211,-3.2195,-3.2203,-3.2162,-3.2212,-3.2212,-3.2212,-3.2212,-3.2212,-3.1594,-3.1624,-3.1674,-3.1721,-3.1758,-3.1796,-3.1829,-3.1864,-3.1907,-3.1963,-3.1983,-3.2034,-3.2082,-3.2154,-3.2184,-3.2225,-3.2225,-3.2236,-3.2238,-3.224,-3.2238,-3.219,-3.2234,-3.2234,-3.2234,-3.2235,-3.2235,0,-3.1624,-3.1657,-3.1701,-3.176,-3.1797,-3.1811,-3.1859,-3.1889,-3.1934,-3.1977,-3.2018,-3.2076,-3.2124,-3.2168,-3.2219,-3.2242,-3.2251,-3.2254,-3.2252,-3.2258,-3.2235,-3.2223,-3.2246,-3.2246,-3.2246,-3.2246,-3.2246,-3.2246,-3.1644,-3.1694,-3.1718,-3.1787,-3.182,-3.1871,-3.1897,-3.1933,-3.1968,-3.2031,-3.2071,-3.21,-3.2144,-3.2198,-3.2242,-3.2254,-3.2271,-3.2271,-3.2285,-3.2262,-3.226,-3.2258,-3.2248,-3.2275,-3.2275,-3.2305,-3.2305,-3.2305]},{"header":{"parameterUnit":"m.s-1","parameterCategory":1,"la1":30.2991,"la2":30.254,"lo1":-89.0895,"lo2":-89.0444,"dy":0.0017,"dx":0.0017,"nx":28,"ny":28,"refTime":"2025-07-23T03:00:00:Z","depth":0,"parameterNumber":3,"parameterNumberName":"V-component_of_WINDS"},"data":[0,0,0,0,0,0,0,0,0,0,0,0,0,0,0,0,0,0,0,0,0,0,0,0,0,0,0,0,0,0,0,0,0,0,0,0,0,0,0,0,0,0,0,0,0,0,0,0,0,0,0,0,0,0,0,0,0,0,4.9798,4.9799,0,4.9864,4.9865,4.9866,4.9799,4.9796,4.9794,4.9791,4.9857,4.9861,4.9865,0,0,0,0,0,0,0,0,0,0,0,0,0,4.9611,4.9615,4.9798,4.9799,4.98,4.9864,4.9865,4.9866,4.9799,4.9796,4.9793,4.979,4.9855,4.986,4.9865,0,0,0,0,0,0,0,0,0,0,0,0,0,4.9687,4.9616,4.9798,4.9774,4.9773,4.9864,4.9865,4.9866,4.98,4.9796,4.9792,4.9788,4.9854,4.986,4.9866,4.9983,0,0,4.9885,4.9888,0,0,0,0,0,0,0,0,4.9682,4.9693,4.9777,4.9776,4.9774,4.9819,4.9823,4.9905,4.9801,4.9789,4.9791,4.9786,4.9847,4.9854,4.9875,4.9986,4.9989,4.9886,4.989,4.9892,4.9894,0,0,0,0,0,0,0,4.9677,4.969,4.9824,4.9778,4.9777,4.9759,4.9766,4.9839,4.9839,4.979,4.9785,4.9794,4.9846,4.9869,4.9876,4.999,4.9886,4.9891,4.9895,4.9897,5.0201,5.0206,0,0,0,0,0,0,4.9675,4.9686,4.9822,4.9826,4.9718,4.9766,4.9773,4.9809,4.9839,4.9839,4.9798,4.9791,4.986,4.9869,4.9878,5.0017,4.9892,4.9898,4.9902,5.0197,5.0202,5.0207,0,0,0,0,0,0,4.9671,4.9688,4.9819,4.9755,4.977,4.9773,4.9814,4.9812,4.9835,4.9844,4.9844,4.9821,4.9857,4.9869,4.9958,5.0018,4.9901,4.9907,5.0192,5.0199,5.0205,5.0296,0,0,0,0,0,0,4.9666,4.9687,4.9732,4.9757,4.9774,4.9899,4.9818,4.9816,4.9846,4.9838,4.9866,4.9867,4.9855,4.9949,4.9964,5.0025,4.9912,5.0187,5.0195,5.0203,5.0288,5.0305,5.032,0,0,0,0,0,4.966,4.9754,4.9734,4.9751,4.9831,4.9902,4.9912,4.9897,4.9852,4.9896,4.9903,4.9866,5.001,4.9958,4.9975,5.0039,5.0183,5.0193,5.0202,5.0281,5.0302,5.0319,0,0,0,0,0,0,4.9735,4.9757,4.9735,4.9841,4.987,4.9891,4.9947,4.992,4.9963,4.9953,4.9933,4.9939,5.0033,5.0045,4.9988,5.0154,5.0089,5.0102,5.0143,5.0163,5.0178,5.0173,4.9917,0,0,0,0,0,4.9765,4.9822,4.9837,4.9929,4.9945,4.9944,4.9975,4.9961,4.999,5.0002,5.0014,5.0044,5.0096,5.013,5.0178,5.029,5.0294,5.0342,5.0358,5.0371,5.0382,5.0442,5.0463,5.0239,5.0239,5.0239,0,0,4.9825,4.9844,4.9881,4.9945,4.9966,5.0025,4.9955,5.002,5.0063,5.0012,5.0096,5.0107,5.0138,5.0239,5.0284,5.0252,5.0445,5.0383,5.0393,5.0398,5.0454,5.0475,5.0494,5.0245,5.0244,5.0243,0,0,4.9965,4.9985,5.0064,5.0087,5.0121,5.0119,5.0139,5.0164,5.0169,5.0254,5.0216,5.0268,5.0357,5.0381,5.0405,5.0556,5.0524,5.0572,5.0655,5.0713,5.0731,5.0747,5.08,5.0819,5.0584,5.0584,5.0584,0,5.0035,5.0123,5.0107,5.0176,5.0205,5.0162,5.0241,5.0264,5.0312,5.0332,5.0296,5.0408,5.0426,5.0531,5.0569,5.059,5.061,5.0568,5.073,5.0745,5.076,5.081,5.083,5.059,5.0589,5.0588,5.0588,0,5.0208,5.027,5.0329,5.0377,5.0413,5.0486,5.0481,5.0519,5.0503,5.0505,5.0592,5.0613,5.0665,5.0689,5.0673,5.0793,5.0772,5.0733,5.0667,5.0787,5.0834,5.0853,5.0598,5.0596,5.0594,5.0593,0,0,5.0396,5.0435,5.0457,5.0478,5.0513,5.056,5.0632,5.0683,5.0716,5.075,5.0809,5.0887,5.0852,5.0879,5.0866,5.0918,5.1035,5.0873,5.0873,5.0901,5.1168,5.1196,5.1218,5.1015,5.1019,5.1021,5.1165,0,5.0536,5.0661,5.0649,5.0767,5.0824,5.0785,5.0847,5.0875,5.088,5.0928,5.0933,5.0988,5.0938,5.0954,5.1004,5.101,5.1088,5.1,5.1069,5.1071,5.1061,5.1243,5.1272,5.1406,5.1183,5.1186,5.1188,0,5.0716,5.0758,5.0882,5.0908,5.0932,5.0988,5.1034,5.1081,5.1112,5.1112,5.1144,5.1122,5.1193,5.1127,5.1225,5.1166,5.1193,5.1201,5.1206,5.1211,5.1136,5.1251,5.1449,5.1469,5.1217,5.1215,5.1213,0,5.0839,5.0927,5.1012,5.1032,5.1065,5.1106,5.1121,5.1148,5.118,5.1221,5.1241,5.1289,5.1316,5.1353,5.1345,5.1298,5.1445,5.1378,5.1446,5.1447,5.1478,5.1476,5.1682,5.1498,5.1498,5.1497,5.1497,0,5.0996,5.1074,5.1068,5.1121,5.1206,5.1192,5.1277,5.1288,5.1312,5.1366,5.1335,5.1386,5.1373,5.1423,5.1417,5.1499,5.1512,5.1513,5.151,5.1515,5.1515,5.1532,5.1522,5.1503,5.1502,5.1501,5.15,0,5.1148,5.1148,5.1238,5.1263,5.1271,5.1333,5.1353,5.1403,5.1406,5.1474,5.1489,5.1494,5.1551,5.1547,5.1612,5.1608,5.1709,5.1696,5.1699,5.1696,5.1764,5.1757,5.1987,5.2016,5.1815,5.1817,5.1818,0,5.1248,5.1306,5.1338,5.1372,5.139,5.1446,5.1478,5.1467,5.1502,5.1542,5.1587,5.1642,5.1685,5.178,5.1788,5.1838,5.1825,5.1902,5.1832,5.1835,5.1825,5.1821,5.1827,5.1915,5.1917,5.1919,5.1921,0,5.1425,5.1422,5.147,5.1519,5.1559,5.1597,5.1632,5.1661,5.1653,5.1695,5.1754,5.1788,5.1854,5.1909,5.1957,5.1972,5.1946,5.1943,5.1961,5.1966,5.1965,5.1966,5.1736,5.1938,5.1936,5.1935,5.1934,5.1933,5.1553,5.1603,5.1633,5.1688,5.1713,5.1746,5.1794,5.1804,5.1853,5.1907,5.1897,5.1964,5.1993,5.2055,5.2075,5.2126,5.2098,5.2125,5.2131,5.2138,5.2145,5.1958,5.2135,5.2134,5.2134,5.2134,5.2133,0,5.1727,5.1745,5.1796,5.1845,5.1889,5.1861,5.1898,5.1936,5.1995,5.2026,5.2069,5.2137,5.2191,5.2205,5.2256,5.2294,5.2283,5.2308,5.2305,5.2309,5.2168,5.2146,5.2316,5.2316,5.2316,5.2316,5.2316,5.2316,5.1823,5.1906,5.1907,5.2003,5.202,5.2085,5.2109,5.2139,5.2163,5.2241,5.2286,5.2295,5.2318,5.2371,5.2419,5.2422,5.2442,5.2471,5.2469,5.2337,5.2318,5.2301,5.2281,5.2476,5.2476,5.2605,5.2606,5.2607]}]]